Starlink 4646

operational
NORAD ID: 53737 Int'l Des: 2022-107 Owner: SPXS Country: US Constellation: starlink
LEOCIRCULAR

About Starlink 4646

Description loading...

Live Position

Loading 3D Globe...

Upcoming Passes

Altitude History

Altitude vs Time

uPlot chart will show altitude changes over time

Two-Line Element Set

1 53737U 22107AP 25305.10366720 .00087166 00000-0 14974-2 0 9992
2 53737 53.1973 90.1031 0001854 244.9699 115.1119 15.50431943175625
Epoch: Nov 1, 2025 • Age: 34 hours

Current Status

Altitude 420.7 km
Velocity 7.66 km/s
Sub-Earth Point 45.15°N, 102.19°W
Launch Date Sep 5, 2022
Age 3.1 years
Type internet

Technical Details

Classification Payload
Mass 305.00 kg
Dry Mass 290.00 kg
Total Mass 305.00 kg
Length 0.20 m
Diameter 2.80 m
Span 9.00 m
Shape Box + pan
Manufacturer SPXS
Bus Type Starlink
Phase Status In Orbit
Owner/State SPXS/US

Large Constellations

Loading constellations...